"DATE","DATA"
"2021-06-09",297.049
"2021-06-02",297.554
"2021-05-26",297.524
"2021-05-19",298.874
"2021-05-12",299.324
"2021-05-05",297.926
"2021-04-28",297.889
"2021-04-21",299.277
"2021-04-14",299.279
"2021-04-07",299.503
"2021-03-31",299.692
"2021-03-24",299.338
"2021-03-17",299.928
"2021-03-10",299.892
"2021-03-03",298.327
"2021-02-24",299.774
"2021-02-17",300.159
"2021-02-10",299.607
"2021-02-03",299.394
"2021-01-27",299.355
"2021-01-20",299.254
"2021-01-13",299.671
"2021-01-06",298.494
"2020-12-30",298.762
"2020-12-23",298.531
"2020-12-16",297.962
"2020-12-09",297.429
"2020-12-02",296.919
"2020-11-25",299.318
"2020-11-18",297.958
"2020-11-11",297.172
"2020-11-04",299.384
"2020-10-28",297.58
"2020-10-21",296.351
"2020-10-14",295.204
"2020-10-07",295.123
"2020-09-30",297.542
"2020-09-23",295.349
"2020-09-16",296.512
"2020-09-09",297.79
"2020-09-02",298.781
"2020-08-26",294.905
"2020-08-19",294.787
"2020-08-12",296.174
"2020-08-05",296.67
"2020-07-29",298.333
"2020-07-22",296.166
"2020-07-15",296.12
"2020-07-08",295.864
"2020-07-01",296.48
"2020-06-24",297.336
"2020-06-17",296.837
"2020-06-10",297.787
"2020-06-03",297.8
"2020-05-27",296.392
"2020-05-20",297.256
"2020-05-13",297.249
"2020-05-06",299.065
"2020-04-29",299.713
"2020-04-22",298.704
"2020-04-15",299.172
"2020-04-08",297.871
"2020-04-01",298.755
"2020-03-25",298.879
"2020-03-18",299.356
"2020-03-11",300.913
"2020-03-04",301.084
"2020-02-26",300.925
"2020-02-19",300.902
"2020-02-12",299.883
"2020-02-05",301.379
"2020-01-29",300.33
"2020-01-22",299.812
"2020-01-15",299.625
"2020-01-08",297.899
"2020-01-01",297.338
"2019-12-25",298.62
"2019-12-18",297.038
"2019-12-11",297.535
"2019-12-04",299.555
"2019-11-27",298.285
"2019-11-20",296.977
"2019-11-13",294.791
"2019-11-06",295.71
"2019-10-30",295.849
"2019-10-23",295.564
"2019-10-16",294.605
"2019-10-09",295.975
"2019-10-02",293.941
"2019-09-25",294.825
"2019-09-18",296.28
"2019-09-11",296.931
"2019-09-04",297.106
"2019-08-28",294.755
"2019-08-21",294.705
"2019-08-14",293.671
"2019-08-07",292.827
"2019-07-31",294.417
"2019-07-24",296.22
"2019-07-17",296.269
"2019-07-10",295.325
"2019-07-03",296.179
"2019-06-26",295.978
"2019-06-19",294.341
"2019-06-12",296.534
"2019-06-05",297.341
"2019-05-29",297.575
"2019-05-22",296.936
"2019-05-15",297.262
"2019-05-08",295.531
"2019-05-01",297.433
"2019-04-24",298.331
"2019-04-17",298.484
"2019-04-10",299.868
"2019-04-03",301.397
"2019-03-27",300.084
"2019-03-20",301.005
"2019-03-13",299.299
"2019-03-06",300.507
"2019-02-27",299.598
"2019-02-20",300.396
"2019-02-13",300.972
"2019-02-06",300.648
"2019-01-30",299.897
"2019-01-23",298.419
"2019-01-16",296.934
"2019-01-09",297.345
"2019-01-02",297.957
"2018-12-26",299.113
"2018-12-19",298.223
"2018-12-12",298.729
"2018-12-05",299.244
"2018-11-28",299.263
"2018-11-21",297.408
"2018-11-14",296.444
"2018-11-07",297.238
"2018-10-31",297.217
"2018-10-24",297.22
"2018-10-17",295.257
"2018-10-10",295.005
"2018-10-03",295.182
"2018-09-26",295.329
"2018-09-19",295.098
"2018-09-12",297.968
"2018-09-05",296.679
"2018-08-29",297.137
"2018-08-22",298.518
"2018-08-15",297.182
"2018-08-08",297.045
"2018-08-01",296.479
"2018-07-25",295.323
"2018-07-18",296.186
"2018-07-11",294.952
"2018-07-04",295.799
"2018-06-27",297.54
"2018-06-20",296.785
"2018-06-13",296.203
"2018-06-06",296.27
"2018-05-30",297.2
"2018-05-23",299.55
"2018-05-16",298.803
"2018-05-09",297.381
"2018-05-02",298.626
"2018-04-25",297.337
"2018-04-18",299.333
"2018-04-11",300.456
"2018-04-04",300.362
"2018-03-28",299.701
"2018-03-21",299.603
"2018-03-14",298.934
"2018-03-07",300.815
"2018-02-28",298.828
"2018-02-21",298.445
"2018-02-14",298.067
"2018-02-07",299.511
"2018-01-31",299.844
"2018-01-24",299.656
"2018-01-17",299.217
"2018-01-10",299.334
"2018-01-03",299.259
"2017-12-27",298.102
"2017-12-20",298.455
"2017-12-13",299.426
"2017-12-06",300.183
"2017-11-29",298.155
"2017-11-22",296.516
"2017-11-15",296.741
"2017-11-08",297.037
"2017-11-01",297.037
"2017-10-25",298.143
"2017-10-18",298.401
"2017-10-11",298.573
"2017-10-04",296.975
"2017-09-27",295.072
"2017-09-20",295.804
"2017-09-13",295.151
"2017-09-06",295.699
"2017-08-30",296.135
"2017-08-23",294.755
"2017-08-16",294.535
"2017-08-09",295.538
"2017-08-02",296.502
"2017-07-26",296.812
"2017-07-19",297.514
"2017-07-12",297.917
"2017-07-05",298.221
"2017-06-28",298.05
"2017-06-21",297.96
"2017-06-14",298.026
"2017-06-07",297.215
"2017-05-31",297.94
"2017-05-24",298.082
"2017-05-17",297.027
"2017-05-10",297.31
"2017-05-03",298.526
"2017-04-26",299.817
"2017-04-19",300.609
"2017-04-12",300.552
"2017-04-05",301.158
"2017-03-29",300.482
"2017-03-22",300.406
"2017-03-15",301.814
"2017-03-08",299.915
"2017-03-01",299.537
"2017-02-22",299.984
"2017-02-15",298.794
"2017-02-08",300.114
"2017-02-01",299.946
"2017-01-25",300.098
"2017-01-18",301.005
"2017-01-11",300.855
"2017-01-04",299.24
"2016-12-28",298.889
"2016-12-21",298.579
"2016-12-14",297.679
"2016-12-07",297.355
"2016-11-30",296.945
"2016-11-23",297.579
"2016-11-16",297.583
"2016-11-09",297.669
"2016-11-02",297.857
"2016-10-26",297.996
"2016-10-19",297.57
"2016-10-12",297.131
"2016-10-05",297.6
"2016-09-28",297.213
"2016-09-21",295.979
"2016-09-14",296.597
"2016-09-07",296.271
"2016-08-31",294.632
"2016-08-24",295.712
"2016-08-17",295.639
"2016-08-10",295.703
"2016-08-03",297.071
"2016-07-27",295.737
"2016-07-20",294.761
"2016-07-13",294.778
"2016-07-06",294.219
"2016-06-29",295.122
"2016-06-22",296.589
"2016-06-15",296.923
"2016-06-08",298.413
"2016-06-01",298.905
"2016-05-25",299.825
"2016-05-18",300.4
"2016-05-11",300.694
"2016-05-04",300.524
"2016-04-27",299.247
"2016-04-20",299.311
"2016-04-13",300.006
"2016-04-06",300.434
"2016-03-30",299.639
"2016-03-23",298.894
"2016-03-16",298.574
"2016-03-09",299.402
"2016-03-02",298.195
"2016-02-24",298.164
"2016-02-17",301.336
"2016-02-10",300.428
"2016-02-03",301.405
"2016-01-27",300.501
"2016-01-20",297.721
"2016-01-13",299.314
"2016-01-06",299.985
"2015-12-30",298.843
"2015-12-23",299.099
"2015-12-16",298.43
"2015-12-09",298.366
"2015-12-02",298.474
"2015-11-25",297.418
"2015-11-18",298.287
"2015-11-11",298.365
"2015-11-04",299.59
"2015-10-28",297.721
"2015-10-21",295.277
"2015-10-14",294.426
"2015-10-07",295.52
"2015-09-30",297.081
"2015-09-23",297.66
"2015-09-16",293.622
"2015-09-09",295.013
"2015-09-02",295.12
"2015-08-26",294.733
"2015-08-19",294.461
"2015-08-12",294.485
"2015-08-05",294.529
"2015-07-29",295.361
"2015-07-22",296.079
"2015-07-15",296.296
"2015-07-08",295.477
"2015-07-01",295.902
"2015-06-24",295.874
"2015-06-17",295.358
"2015-06-10",295.713
"2015-06-03",296.103
"2015-05-27",296.611
"2015-05-20",298.063
"2015-05-13",298.3
"2015-05-06",299.237
"2015-04-29",299.49
"2015-04-22",298.009
"2015-04-15",298.733
"2015-04-08",299.876
"2015-04-01",299.786
"2015-03-25",299.118
"2015-03-18",298.691
"2015-03-11",300.255
"2015-03-04",302.176
"2015-02-25",301.218
"2015-02-18",299.489
"2015-02-11",298.137
"2015-02-04",299.812
"2015-01-28",300.037
"2015-01-21",299.385
"2015-01-14",298.919
"2015-01-07",298.946
"2014-12-31",299.276
"2014-12-24",299.55
"2014-12-17",300.663
"2014-12-10",297.693
"2014-12-03",298.499
"2014-11-26",297.03
"2014-11-19",297.384
"2014-11-12",295.331
"2014-11-05",295.143
"2014-10-29",294.061
"2014-10-22",295.409
"2014-10-15",296.546
"2014-10-08",297.038
"2014-10-01",296.754
"2014-09-24",296.316
"2014-09-17",296.152
"2014-09-10",293.937
"2014-09-03",296.058
"2014-08-27",297.233
"2014-08-20",296.477
"2014-08-13",296.061
"2014-08-06",295.838
"2014-07-30",296.077
"2014-07-23",296.141
"2014-07-16",298.16
"2014-07-09",296.896
"2014-07-02",296.62
"2014-06-25",296.847
"2014-06-18",297.3
"2014-06-11",297.883
"2014-06-04",297.039
"2014-05-28",298.048
"2014-05-21",298.631
"2014-05-14",299.011
"2014-05-07",299.201
"2014-04-30",299.508
"2014-04-23",299.598
"2014-04-16",299.828
"2014-04-09",298.917
"2014-04-02",299.648
"2014-03-26",298.866
"2014-03-19",300.075
"2014-03-12",300.211
"2014-03-05",299.094
"2014-02-26",299.297
"2014-02-19",299.429
"2014-02-12",298.67
"2014-02-05",299.704
"2014-01-29",297.994
"2014-01-22",299.348
"2014-01-15",299.033
"2014-01-08",298.392
"2014-01-01",297.96
"2013-12-25",298.393
"2013-12-18",298.414
"2013-12-11",298.738
"2013-12-04",299.311
"2013-11-27",298.037
"2013-11-20",298.481
"2013-11-13",297.763
"2013-11-06",296.067
"2013-10-30",296.389
"2013-10-23",296.625
"2013-10-16",295.128
"2013-10-09",296.31
"2013-10-02",294.257
"2013-09-25",293.932
"2013-09-18",292.53
"2013-09-11",293.361
"2013-09-04",293.869
"2013-08-28",298.417
"2013-08-21",294.97
"2013-08-14",295.226
"2013-08-07",295.285
"2013-07-31",295.483
"2013-07-24",295.82
"2013-07-17",294.181
"2013-07-10",293.441
"2013-07-03",294.253
"2013-06-26",295.389
"2013-06-19",296.003
"2013-06-12",296.265
"2013-06-05",298.232
"2013-05-29",297.161
"2013-05-22",297.41
"2013-05-15",298.155
"2013-05-08",298.226
"2013-05-01",298.928
"2013-04-24",299.087
"2013-04-17",299.136
"2013-04-10",298.767
"2013-04-03",298.739
"2013-03-27",298.309
"2013-03-20",298.96
"2013-03-13",298.388
"2013-03-06",299.063
"2013-02-27",300.981
"2013-02-20",299.711
"2013-02-13",299.255
"2013-02-06",300.213
"2013-01-30",300.163
"2013-01-23",300.985
"2013-01-16",300.303
"2013-01-09",298.217
"2013-01-02",298.596
"2012-12-26",298.239
"2012-12-19",298.644
"2012-12-12",298.065
"2012-12-05",297.973
"2012-11-28",296.035
"2012-11-21",296.389
"2012-11-14",295.866
"2012-11-07",296.364
"2012-10-31",295.82
"2012-10-24",295.49
"2012-10-17",294.4
"2012-10-10",295.598
"2012-10-03",292.996
"2012-09-26",294.693
"2012-09-19",294.833
"2012-09-12",294.81
"2012-09-05",295.139
"2012-08-29",295.922
"2012-08-22",295.344
"2012-08-15",294.622
"2012-08-08",295.027
"2012-08-01",294.114
"2012-07-25",294.624
"2012-07-18",295.45
"2012-07-11",296.368
"2012-07-04",297.389
"2012-06-27",296.265
"2012-06-20",298.197
"2012-06-13",297.778
"2012-06-06",299.348
"2012-05-30",298.356
"2012-05-23",297.69
"2012-05-16",298.328
"2012-05-09",297.203
"2012-05-02",298.158
"2012-04-25",296.936
"2012-04-18",296.748
"2012-04-11",299.604
"2012-04-04",299.436
"2012-03-28",300.488
"2012-03-21",300.845
"2012-03-14",300.033
"2012-03-07",299.841
"2012-02-29",299.205
"2012-02-22",299.767
"2012-02-15",298.877
"2012-02-08",300.49
"2012-02-01",299.111
"2012-01-25",299.024
"2012-01-18",298.623
"2012-01-11",298.533
"2012-01-04",297.846
"2011-12-28",297.842
"2011-12-21",298.745
"2011-12-14",299.332
"2011-12-07",299.291
"2011-11-30",297.68
"2011-11-23",297.029
"2011-11-16",297.224
"2011-11-09",296.666
"2011-11-02",297.864
"2011-10-26",297.116
"2011-10-19",295.398
"2011-10-12",295.748
"2011-10-05",294.238
"2011-09-28",296.021
"2011-09-21",296.343
"2011-09-14",296.608
"2011-09-07",297.207
"2011-08-31",295.701
"2011-08-24",294.63
"2011-08-17",295.643
"2011-08-10",295.772
"2011-08-03",296.123
"2011-07-27",297.119
"2011-07-20",296.371
"2011-07-13",297.655
"2011-07-06",295.902
"2011-06-29",296.649
"2011-06-22",297.271
"2011-06-15",297.072
"2011-06-08",296.024
"2011-06-01",296.793
"2011-05-25",296.578
"2011-05-18",297.655
"2011-05-11",297.783
"2011-05-04",298.794
"2011-04-27",297.961
"2011-04-20",298.846
"2011-04-13",299.526
"2011-04-06",299.579
"2011-03-30",299.799
"2011-03-23",300.321
"2011-03-16",299.748
"2011-03-09",296.672
"2011-03-02",298.452
"2011-02-23",299.352
"2011-02-16",300.859
"2011-02-09",300.771
"2011-02-02",299.838
"2011-01-26",297.955
"2011-01-19",298.898
"2011-01-12",299.913
"2011-01-05",299.894
"2010-12-29",299.853
"2010-12-22",300.108
"2010-12-15",299.248
"2010-12-08",299.952
"2010-12-01",299.824
"2010-11-24",299.134
"2010-11-17",294.851
"2010-11-10",294.858
"2010-11-03",297.403
"2010-10-27",298.267
"2010-10-20",296.036
"2010-10-13",295.675
"2010-10-06",296.893
"2010-09-29",297.518
"2010-09-22",296.607
"2010-09-15",297.337
"2010-09-08",296.763
"2010-09-01",295.899
"2010-08-25",297.145
"2010-08-18",297.173
"2010-08-11",295.308
"2010-08-04",295.383
"2010-07-28",295.603
"2010-07-21",294.09
"2010-07-14",296.234
"2010-07-07",297.038
"2010-06-30",295.526
"2010-06-23",296.606
"2010-06-16",298.49
"2010-06-09",297.571
"2010-06-02",296.891
"2010-05-26",297.568
"2010-05-19",297.53
"2010-05-12",297.762
"2010-05-05",298.46
"2010-04-28",299.082
"2010-04-21",299.001
"2010-04-14",299.514
"2010-04-07",298.644
"2010-03-31",300.298
"2010-03-24",300.145
"2010-03-17",298.768
"2010-03-10",299.473
"2010-03-03",299.774
"2010-02-24",299.279
"2010-02-17",299.225
"2010-02-10",299.109
"2010-02-03",299.932
"2010-01-27",300
"2010-01-20",300.76
"2010-01-13",301.229
"2010-01-06",300.355
"2009-12-30",299.63
"2009-12-23",297.97
"2009-12-16",297.133
"2009-12-09",297.799
"2009-12-02",297.299
"2009-11-25",295.228
"2009-11-18",296.237
"2009-11-11",295.929
"2009-11-04",296.018
"2009-10-28",297.128
"2009-10-21",298.991
"2009-10-14",297.706
"2009-10-07",297.391
"2009-09-30",294.588
"2009-09-23",293.267
"2009-09-16",294.317
"2009-09-09",293.88
"2009-09-02",295.039
"2009-08-26",294.776
"2009-08-19",294.14
"2009-08-12",295.148
"2009-08-05",295.35
"2009-07-29",294.666
"2009-07-22",294.968
"2009-07-15",295.059
"2009-07-08",295.196
"2009-07-01",295.253
"2009-06-24",295.887
"2009-06-17",296.905
"2009-06-10",295.776
"2009-06-03",295.228
"2009-05-27",294.52
"2009-05-20",296.39
"2009-05-13",297.071
"2009-05-06",297.88
"2009-04-29",298.434
"2009-04-22",299.943
"2009-04-15",299.709
"2009-04-08",299.563
"2009-04-01",300.831
"2009-03-25",301.235
"2009-03-18",301.643
"2009-03-11",301.516
"2009-03-04",301.094
"2009-02-25",300.51
"2009-02-18",301.27
"2009-02-11",299.618
"2009-02-04",299.731
"2009-01-28",298.923
"2009-01-21",299.71
"2009-01-14",300.776
"2009-01-07",300.527
"2008-12-31",301.628
"2008-12-24",299.125
"2008-12-17",300.288
"2008-12-10",299.108
"2008-12-03",298.227
"2008-11-26",297.032
"2008-11-19",297.311
"2008-11-12",298.031
"2008-11-05",298.178
"2008-10-29",298.523
"2008-10-22",298.355
"2008-10-15",298.346
"2008-10-08",298.313
"2008-10-01",296.764
"2008-09-24",294.291
"2008-09-17",295.316
"2008-09-10",297.043
"2008-09-03",295.728
"2008-08-27",293.708
"2008-08-20",295.164
"2008-08-13",295.999
"2008-08-06",296.657
"2008-07-30",297.342
"2008-07-23",296.482
"2008-07-16",296.104
"2008-07-09",295.533
"2008-07-02",294.789
"2008-06-25",295.636
"2008-06-18",294.741
"2008-06-11",295.546
"2008-06-04",296.457
"2008-05-28",295.582
"2008-05-21",296.695
"2008-05-14",296.44
"2008-05-07",297.326
"2008-04-30",298.728
"2008-04-23",297.757
"2008-04-16",299.141
"2008-04-09",298.524
"2008-04-02",299.071
"2008-03-26",300.25
"2008-03-19",300.527
"2008-03-12",301.141
"2008-03-05",299.82
"2008-02-27",300.626
"2008-02-20",299.881
"2008-02-13",298.836
"2008-02-06",298.119
"2008-01-30",298.233
"2008-01-23",297.968
"2008-01-16",299.358
"2008-01-09",299.496
"2008-01-02",299.027
"2007-12-26",298.328
"2007-12-19",298.459
"2007-12-12",298.583
"2007-12-05",298.491
"2007-11-28",297.615
"2007-11-21",297.71
"2007-11-14",298.575
"2007-11-07",296.805
"2007-10-31",296.977
"2007-10-24",295.216
"2007-10-17",296.065
"2007-10-10",298.486
"2007-10-03",296.564
"2007-09-26",295.191
"2007-09-19",297.312
"2007-09-12",296.82
"2007-09-05",296.865
"2007-08-29",296.046
"2007-08-22",296.543
"2007-08-15",297.437
"2007-08-08",297.475
"2007-08-01",296.966
"2007-07-25",296.007
"2007-07-18",294.918
"2007-07-11",295.731
"2007-07-04",297.057
"2007-06-27",298.172
"2007-06-20",298.166
"2007-06-13",299.277
"2007-06-06",298.844
"2007-05-30",296.917
"2007-05-23",297.641
"2007-05-16",298.027
"2007-05-09",297.348
"2007-05-02",298.658
"2007-04-25",297.76
"2007-04-18",297.07
"2007-04-11",298.268
"2007-04-04",298.167
"2007-03-28",299.564
"2007-03-21",300.284
"2007-03-14",300.192
"2007-03-07",299.582
"2007-02-28",301.076
"2007-02-21",302.85
"2007-02-14",299.132
"2007-02-07",299.515
"2007-01-31",299.615
"2007-01-24",299.908
"2007-01-17",300.186
"2007-01-10",299.87
"2007-01-03",298.99
